Simultaneous Nadir Overpasses (SNOs) Predictions

Prediction of SNOs between NOAA-20 and PACE Satellite Orbit:

Table of predicted SNOs for the next 14.0 days since TLE Epoch: 6/22/2024
Index Date (NOAA-20) Time (NOAA-20) Lat,Lon (NOAA-20) SZA (NOAA-20 ) Date (PACE) Time (PACE) Lat,Lon (PACE) SZA (PACE ) Distance(km) Time Diff (sec)
1 06/23/2024 14:18:35 -79.96, 107.11 121.10 06/23/2024 14:18:23 -79.95, 107.25 121.12 3.03 12
2 06/25/2024 17:54:15 80.11,-128.26 59.25 06/25/2024 17:55:21 80.10,-128.12 59.19 2.85 66
3 06/25/2024 18:44:51 -79.87, 41.50 121.21 06/25/2024 18:44:24 -79.87, 41.36 121.18 2.75 27
4 06/27/2024 22:20:33 80.07, 165.53 59.29 06/27/2024 22:21:23 80.07, 165.59 59.25 1.25 50
5 06/27/2024 23:11:11 -79.89, -25.31 121.07 06/27/2024 23:10:27 -79.88, -25.21 121.07 2.11 44
6 06/30/2024 02:46:49 79.98, 99.88 59.24 06/30/2024 02:47:23 79.99, 99.75 59.25 2.58 34
7 06/30/2024 03:37:27 -79.79, -90.98 121.11 06/30/2024 03:36:27 -79.79, -91.07 121.07 1.72 60
8 07/02/2024 07:13:07 79.95, 33.60 59.35 07/02/2024 07:13:24 79.95, 33.49 59.36 2.14 17



Historial Predications of SNOs between NOAA-20 and PACE
